Nanticoke — VCQL — position and weather

sailwx.info

Track history (hours):
 
Tides and Currents Weather Stations Pressure Air Temp Water Temp Dewpoint Dewpoint Depression Visibility Wind Speed Wind Dir Waves Ship Positions

Nanticoke

Last reported at 2014-Oct-30 09:33 UTC. Time now 2014-Nov-01 09:03 UTC.
Position N 46°27' W 072°16'.

Length 222 m; draft 2.3 m.

Type: Cargo ship. MMSI: 316043000.

Date/timePositionNaut miles runAvg speedWind from/ knotsBaromVisibWave heightAir tempDewpointWater temp
2014-Oct-30 09:33N 46°27' W 072°16'1312.7
2014-Oct-30 08:33N 46°20' W 072°32'1111.3
2014-Oct-30 07:33N 46°14' W 072°46'1512.9
2014-Oct-30 06:26N 46°05' W 073°01'1111.7
2014-Oct-30 05:31N 45°57' W 073°13'1313.1
2014-Oct-30 04:33N 45°47' W 073°22'1212.5
2014-Oct-30 03:33N 45°35' W 073°30'6 5.8
2014-Oct-30 02:33N 45°30' W 073°31'3 3.5
2014-Oct-30 01:33N 45°26' W 073°30'3 3.4
2014-Oct-30 00:33N 45°24' W 073°34'5 4.8
2014-Oct-29 23:33N 45°25' W 073°41'9 9.5
2014-Oct-29 22:33N 45°21' W 073°53'3 3.0
2014-Oct-29 21:33N 45°18' W 073°56'0 0.3
2014-Oct-29 20:33N 45°18' W 073°56'4 4.4
2014-Oct-29 19:33N 45°14' W 073°59'4 2.2
2014-Oct-29 17:33N 45°13' W 074°05'0 0.0
2014-Oct-29 16:33N 45°13' W 074°05'0 0.0
2014-Oct-29 15:25N 45°13' W 074°05'0 0.0
2014-Oct-29 14:33N 45°13' W 074°05'0 0.0
2014-Oct-29 13:33N 45°13' W 074°05'0 0.0
2014-Oct-29 12:33N 45°13' W 074°05'0 0.0
2014-Oct-29 11:33N 45°13' W 074°05'0 0.0
2014-Oct-29 10:33N 45°13' W 074°05'1 0.6
2014-Oct-29 09:33N 45°13' W 074°05'8 7.6
2014-Oct-29 08:33N 45°18' W 073°56'1 1.3
2014-Oct-29 07:33N 45°19' W 073°55'1 0.7
2014-Oct-29 06:33N 45°20' W 073°55'8 8.0
2014-Oct-29 05:33N 45°24' W 073°45'6 6.0
2014-Oct-29 04:33N 45°24' W 073°37'2 2.2
2014-Oct-29 03:33N 45°24' W 073°34'4 3.9
2014-Oct-29 02:33N 45°27' W 073°30'3 2.5
2014-Oct-29 01:33N 45°30' W 073°31'4 3.9
2014-Oct-29 00:33N 45°34' W 073°31'7 7.3
2014-Oct-28 23:33N 45°41' W 073°27'9 9.1
2014-Oct-28 22:33N 45°48' W 073°20'9 9.2
2014-Oct-28 21:33N 45°56' W 073°13'9 8.4
2014-Oct-28 20:30N 46°04' W 073°06'9 9.0
2014-Oct-28 19:31N 46°10' W 072°57'1010.3
2014-Oct-28 18:33N 46°15' W 072°44'9 8.8
2014-Oct-28 17:33N 46°19' W 072°33'9 8.8
2014-Oct-28 16:33N 46°24' W 072°23'8 8.4
2014-Oct-28 15:33N 46°30' W 072°14'8 8.2
2014-Oct-28 14:33N 46°34' W 072°04'10 9.7
2014-Oct-28 13:29N 46°41' W 071°52'  
2014-Oct-23 02:31N 46°32' W 072°11'1111.7
2014-Oct-23 01:33N 46°25' W 072°23'1111.4
2014-Oct-23 00:33N 46°17' W 072°36'1212.0
2014-Oct-22 23:33N 46°12' W 072°51'1612.1
2014-Oct-22 22:16N 46°03' W 073°09'912.4
2014-Oct-22 21:33N 45°54' W 073°13'1313.2
2014-Oct-22 20:33N 45°44' W 073°25'1212.4
2014-Oct-22 19:33N 45°33' W 073°32'1 0.7
2014-Oct-22 18:33N 45°32' W 073°32'0 0.0
2014-Oct-22 17:33N 45°32' W 073°32'0 0.0
2014-Oct-22 16:33N 45°32' W 073°32'0 0.0
2014-Oct-22 15:33N 45°32' W 073°32'0 0.0
2014-Oct-22 14:33N 45°32' W 073°32'0 0.0
2014-Oct-22 13:33N 45°32' W 073°32'0 0.0
2014-Oct-22 12:33N 45°32' W 073°32'0 0.0
2014-Oct-22 11:33N 45°32' W 073°32'0 0.0
2014-Oct-22 10:33N 45°32' W 073°32'1 0.7
2014-Oct-22 09:33N 45°33' W 073°32'8 8.1
2014-Oct-22 08:33N 45°40' W 073°28'8 8.4
2014-Oct-22 07:33N 45°47' W 073°21'9 8.7
2014-Oct-22 06:33N 45°54' W 073°13'10 8.4
2014-Oct-22 05:23N 46°03' W 073°08'18 8.9
2014-Oct-22 03:20N 46°14' W 072°47'7 9.4
2014-Oct-22 02:33N 46°17' W 072°37'9 8.9
2014-Oct-22 01:33N 46°23' W 072°27'10 9.7
2014-Oct-22 00:33N 46°28' W 072°15'  
Track history (hours):
 
Tides and Currents Weather Stations Pressure Air Temp Water Temp Dewpoint Dewpoint Depression Visibility Wind Speed Wind Dir Waves Ship Positions

Nanticoke

Last reported at 2014-Oct-30 09:33 UTC. Time now 2014-Nov-01 09:03 UTC.
Position N 46°27' W 072°16'.

Length 222 m; draft 2.3 m.

Type: Cargo ship. MMSI: 316043000.

Date/timePositionNaut miles runAvg speedWind from/ knotsBaromVisibWave heightAir tempDewpointWater temp
2014-Oct-30 09:33N 46°27' W 072°16'1312.7
2014-Oct-30 08:33N 46°20' W 072°32'1111.3
2014-Oct-30 07:33N 46°14' W 072°46'1512.9
2014-Oct-30 06:26N 46°05' W 073°01'1111.7
2014-Oct-30 05:31N 45°57' W 073°13'1313.1
2014-Oct-30 04:33N 45°47' W 073°22'1212.5
2014-Oct-30 03:33N 45°35' W 073°30'6 5.8
2014-Oct-30 02:33N 45°30' W 073°31'3 3.5
2014-Oct-30 01:33N 45°26' W 073°30'3 3.4
2014-Oct-30 00:33N 45°24' W 073°34'5 4.8
2014-Oct-29 23:33N 45°25' W 073°41'9 9.5
2014-Oct-29 22:33N 45°21' W 073°53'3 3.0
2014-Oct-29 21:33N 45°18' W 073°56'0 0.3
2014-Oct-29 20:33N 45°18' W 073°56'4 4.4
2014-Oct-29 19:33N 45°14' W 073°59'4 2.2
2014-Oct-29 17:33N 45°13' W 074°05'0 0.0
2014-Oct-29 16:33N 45°13' W 074°05'0 0.0
2014-Oct-29 15:25N 45°13' W 074°05'0 0.0
2014-Oct-29 14:33N 45°13' W 074°05'0 0.0
2014-Oct-29 13:33N 45°13' W 074°05'0 0.0
2014-Oct-29 12:33N 45°13' W 074°05'0 0.0
2014-Oct-29 11:33N 45°13' W 074°05'0 0.0
2014-Oct-29 10:33N 45°13' W 074°05'1 0.6
2014-Oct-29 09:33N 45°13' W 074°05'8 7.6
2014-Oct-29 08:33N 45°18' W 073°56'1 1.3
2014-Oct-29 07:33N 45°19' W 073°55'1 0.7
2014-Oct-29 06:33N 45°20' W 073°55'8 8.0
2014-Oct-29 05:33N 45°24' W 073°45'6 6.0
2014-Oct-29 04:33N 45°24' W 073°37'2 2.2
2014-Oct-29 03:33N 45°24' W 073°34'4 3.9
2014-Oct-29 02:33N 45°27' W 073°30'3 2.5
2014-Oct-29 01:33N 45°30' W 073°31'4 3.9
2014-Oct-29 00:33N 45°34' W 073°31'7 7.3
2014-Oct-28 23:33N 45°41' W 073°27'9 9.1
2014-Oct-28 22:33N 45°48' W 073°20'9 9.2
2014-Oct-28 21:33N 45°56' W 073°13'9 8.4
2014-Oct-28 20:30N 46°04' W 073°06'9 9.0
2014-Oct-28 19:31N 46°10' W 072°57'1010.3
2014-Oct-28 18:33N 46°15' W 072°44'9 8.8
2014-Oct-28 17:33N 46°19' W 072°33'9 8.8
2014-Oct-28 16:33N 46°24' W 072°23'8 8.4
2014-Oct-28 15:33N 46°30' W 072°14'8 8.2
2014-Oct-28 14:33N 46°34' W 072°04'10 9.7
2014-Oct-28 13:29N 46°41' W 071°52'  
2014-Oct-23 02:31N 46°32' W 072°11'1111.7
2014-Oct-23 01:33N 46°25' W 072°23'1111.4
2014-Oct-23 00:33N 46°17' W 072°36'1212.0
2014-Oct-22 23:33N 46°12' W 072°51'1612.1
2014-Oct-22 22:16N 46°03' W 073°09'912.4
2014-Oct-22 21:33N 45°54' W 073°13'1313.2
2014-Oct-22 20:33N 45°44' W 073°25'1212.4
2014-Oct-22 19:33N 45°33' W 073°32'1 0.7
2014-Oct-22 18:33N 45°32' W 073°32'0 0.0
2014-Oct-22 17:33N 45°32' W 073°32'0 0.0
2014-Oct-22 16:33N 45°32' W 073°32'0 0.0
2014-Oct-22 15:33N 45°32' W 073°32'0 0.0
2014-Oct-22 14:33N 45°32' W 073°32'0 0.0
2014-Oct-22 13:33N 45°32' W 073°32'0 0.0
2014-Oct-22 12:33N 45°32' W 073°32'0 0.0
2014-Oct-22 11:33N 45°32' W 073°32'0 0.0
2014-Oct-22 10:33N 45°32' W 073°32'1 0.7
2014-Oct-22 09:33N 45°33' W 073°32'8 8.1
2014-Oct-22 08:33N 45°40' W 073°28'8 8.4
2014-Oct-22 07:33N 45°47' W 073°21'9 8.7
2014-Oct-22 06:33N 45°54' W 073°13'10 8.4
2014-Oct-22 05:23N 46°03' W 073°08'18 8.9
2014-Oct-22 03:20N 46°14' W 072°47'7 9.4
2014-Oct-22 02:33N 46°17' W 072°37'9 8.9
2014-Oct-22 01:33N 46°23' W 072°27'10 9.7
2014-Oct-22 00:33N 46°28' W 072°15'  

Dump ship's entire track history